Regional Weather Roundup
Issued by NWS

Home | Current Version | Previous Version | Graphics & Text | Print | Product List | Glossary On
Versions: 1 2 3 4 5 6 7 8 9 10 11 12 13 14 15 16 17 18 19 20 21 22 23 24 25 26 27 28 29 30 31 32 33 34 35 36 37 38 39 40 41 42 43 44 45 46 47 48 49 50
000
ASUS43 KMPX 262101
RWRMN
WEATHER ROUNDUP FOR MINNESOTA
NATIONAL WEATHER SERVICE TWIN CITIES/CHANHASSEN MN
400 PM CDT TUE MAY 26 2015


NOTE: "FAIR" INDICATES FEW OR NO CLOUDS BELOW 12,000 FEET WITH NO
SIGNIFICANT WEATHER AND/OR OBSTRUCTIONS TO VISIBILITY. N/A MEANS
CURRENT SKY AND/OR WEATHER CONDITIONS ARE NOT AVAILABLE.

MNZ060>063-068>070-262200-
   Twin Cities Metro

CITY           SKY/WX    TMP DP  RH WIND       PRES   REMARKS
TWIN CITIES    RAIN      58  57  97 NW9       29.78S FOG
ST PAUL        LGT RAIN  59  57  93 NW10      29.77F FOG
CRYSTAL        LGT RAIN  58  56  93 N7        29.78R FOG
BLAINE         LGT RAIN  59  59 100 N8        29.78S FOG
LAKEVILLE      RAIN      57  55  94 NW6       29.77S
EDEN PRAIRIE   RAIN      58  56  93 N6        29.77S FOG
SOUTH ST PAUL  LGT RAIN  59  57  95 N7        29.76F
LAKE ELMO      LGT RAIN  59  57  94 NW9       29.78S
$$
MNZ001>005-007-008-013>017-022>024-027-028-262200-
   Northwest Minnesota

CITY           SKY/WX    TMP DP  RH WIND       PRES   REMARKS
BEMIDJI        PTSUNNY   72  52  50 CALM      29.80F
HALLOCK        SUNNY     82  41  23 W5        29.73F
ROSEAU         MOSUNNY   79  54  41 NW8       29.75S
WARROAD        MOSUNNY   79  54  41 S5        29.75F
THIEF RVR FALL MOSUNNY   79  48  34 SW8       29.77F
CROOKSTON      SUNNY     81  52  36 SE7       29.75F
FOSSTON        PTSUNNY   75  52  43 SW9       29.80S
DETROIT LAKES  CLOUDY    72  52  49 SW3       29.82F
MOORHEAD       PTSUNNY   73  55  53 S9        29.80S
PARK RAPIDS    CLOUDY    73  48  41 CALM      29.80F
MAHNOMEN       FAIR      73  55  53 SW8       29.80F
$$
MNZ006-009>011-018-025>026-262200-
   North Central Minnesota

CITY           SKY/WX    TMP DP  RH WIND       PRES   REMARKS
BAUDETTE       PTSUNNY   77  50  38 VRB3      29.76F
FLAG ISLAND    SUNNY     70  52  52 SE6       29.75S
INTL FALLS     PTSUNNY   75  50  41 VRB6      29.77F
WASKISH        PTSUNNY   72  55  56 CALM      29.79F
BIG FORK       PTSUNNY  N/A N/A N/A S3        29.79F
LONGVILLE      CLOUDY    72  52  49 CALM      29.80S
GRAND RAPIDS   CLOUDY    70  50  49 NE3       29.81S
CRANE LAKE     CLOUDY    72  48  43 SE3       29.80F
ORR            CLOUDY    72  46  40 SE6       29.77F
COOK           CLOUDY    70  50  49 SE5       29.80F
WALKER         FAIR      69  52  54 CALM      29.81S
$$
MNZ012-019>021-037-262200-
   Northeast Minnesota

CITY           SKY/WX    TMP DP  RH WIND       PRES   REMARKS
DULUTH         CLOUDY    64  52  64 NE15G21   29.80F
HIBBING        CLOUDY    70  49  47 E8        29.80S
EVELETH        CLOUDY    70  52  52 SE3       29.81F
DULUTH HARBOR  CLOUDY    52  48  87 NE3       29.82S
TWO HARBORS    CLOUDY    63  55  77 E6        29.80S
GRAND MARAIS     N/A     50  47  89 CALM      29.82F
G MARAIS ARPRT CLOUDY    61  50  67 S5        29.84S
$$
MNZ029>031-032-039>041-046>048-054>057-064-262200-
   West Central Minnesota

CITY           SKY/WX    TMP DP  RH WIND       PRES   REMARKS
FERGUS FALLS   CLOUDY    72  54  53 CALM      29.81S
WHEATON        CLOUDY    70  54  56 N3        29.83F
MORRIS         CLOUDY    72  54  53 N7        29.81S
ALEXANDRIA     CLOUDY    69  52  54 NE12      29.82S
ELBOW LAKE     FAIR      71  54  55 N6        29.81F
WADENA         CLOUDY    72  52  49 CALM      29.81S
GLENWOOD       CLOUDY    68  54  60 NE10      29.82S
APPLETON       CLOUDY    72  52  49 N8        29.80F
BENSON         CLOUDY    70  48  46 E6        29.80F
ORTONVILLE     CLOUDY    70  55  60 NW7       29.82S
MADISON        CLOUDY    70  52  52 N10       29.81S
WILLMAR        FAIR      63  55  77 E7        29.82F
$$
MNZ033>034-036-042>043-049>051-058-059-262200-
   Central Minnesota

CITY           SKY/WX    TMP DP  RH WIND       PRES   REMARKS
ST CLOUD       CLOUDY    61  55  81 E5        29.80S
SAUK CENTRE    FAIR      66  56  70 NE3       29.81S
PAYNESVILLE    CLOUDY    59  54  82 N9        29.82S
AITKIN         CLOUDY    68  54  60 NE9       29.79S
PINE RIVER     CLOUDY    72  54  53 E7        29.84R
BRAINERD       CLOUDY    67  53  61 NE8       29.81S
STAPLES        CLOUDY    70  48  46 CALM      29.81R
LONG PRAIRIE   FAIR      66  52  59 NE6       29.81S
LITTLE FALLS   CLOUDY    64  52  63 NE7       29.81S
LITCHFIELD     DRIZZLE   61  59  94 NE6       29.82R
BUFFALO        LGT RAIN  57  54  91 N6        29.81S
MAPLE LAKE     LGT RAIN  58  57  95 N6        29.81S
$$
MNZ037-044-045-052-053-262200-
   East Central Minnesota

CITY           SKY/WX    TMP DP  RH WIND       PRES   REMARKS
PRINCETON      LGT RAIN  59  55  88 N6        29.81S
MORA           RAIN      55  52  88 NE3       29.82S
CAMBRIDGE      LGT RAIN  61  52  72 N5        29.78S
RUSH CITY      LGT RAIN  57  54  92 N8        29.80S
MOOSE LAKE     CLOUDY    61  55  82 NE8       29.79F
HINCKLEY       DRIZZLE   59  55  88 E6        29.80S
CLOQUET        CLOUDY    63  52  67 NE9       29.81S
MCGREGOR       CLOUDY    66  54  63 NE8       29.81R
$$
MNZ071>073-080-081-089-090-097-098-262200-
   Southwest Minnesota

CITY           SKY/WX    TMP DP  RH WIND       PRES   REMARKS
MONTEVIDEO     CLOUDY    66  57  72 SE5       29.82S
GRANITE FALLS  CLOUDY    63  55  75 N5        29.83S
CANBY          CLOUDY    67  54  63 N10       29.83S
MARSHALL       CLOUDY    61  52  72 N3        29.82S
REDWOOD FALLS  CLOUDY    58  56  93 NW3       29.81S
OLIVIA         CLOUDY    57  52  82 N6        29.81S
PIPESTONE      CLOUDY    61  54  77 VRB7      29.84R
WINDOM         LGT RAIN  57  55  94 N8        29.82S
WORTHINGTON    CLOUDY    57  52  82 NW12      29.83S
JACKSON        DRIZZLE   57  57 100 N10       29.82R
TRACY          CLOUDY    59  56  91 N3        29.83S
SLAYTON        CLOUDY    57  55  93 N7        29.84S
$$
MNZ065>067-074>077-082>085-091>093-262200-
   South Central Minnesota

CITY           SKY/WX    TMP DP  RH WIND       PRES   REMARKS
MANKATO        CLOUDY    57  55  94 N12       29.78F
NEW ULM        RAIN      55  55 100 N5        29.80F
ST JAMES       LGT RAIN  59  57  94 NW12      29.81S
FAIRMONT       CLOUDY    59  54  82 NW10      29.79S
GLENCOE        RAIN      58  58  99 NW5       29.80S
FARIBAULT      RAIN      61  61 100 NW5       29.77S
OWATONNA       LGT RAIN  63  59  88 W9        29.77S
WASECA         LGT RAIN  59  55  88 NW15      29.78F
ALBERT LEA     DRIZZLE   63  61  94 NW6       29.76F
$$
MNZ078>079-086>088-094>096-262200-
   Southeast Minnesota

CITY           SKY/WX    TMP DP  RH WIND       PRES   REMARKS
ROCHESTER      LGT RAIN  62  59  90 NW14      29.75S
RED WING       HVY RAIN  63  61  94 W7        29.73S
STANTON        RAIN      61  58  91 NW10      29.75S
DODGE CENTER   LGT RAIN  63  61  94 NW10      29.76S
WINONA         HVY RAIN  61  59  94 NW14      29.68F
AUSTIN         LGT RAIN  63  59  88 NW7       29.75F
PRESTON        LGT RAIN  60  58  94 NW14      29.72S
$$
ABBREVIATIONS USED IN REMARKS
   TC - TEMPERATURES IN CELSIUS
  WCI - WIND CHILL INDEX
   HX - HEAT INDEX
  VSB - VISIBILITY
$$



USA.gov is the U.S. government's official web portal to all federal, state and local government web resources and services.